Wind_Speed
13 12 12 12 12 11 10 9 8 6 4 4 5 6 7 9 11 12 14 15 16 17 18 19 19 20 21 21 22 22 23 24 24 25 26 26 26 27 27 28 27 26 24 23
12 12 12 12 11 10 9 9 8 7 6 6 6 7 9 10 12 13 14 16 17 18 19 20 20 20 21 22 22 23 23 24 24 25 25 26 26 27 27 27 27 26 25 24
13 12 12 12 11 10 9 9 9 8 7 7 8 9 10 11 13 14 15 17 18 19 19 20 21 21 22 22 23 23 23 24 24 25 25 26 26 27 27 27 27 26 26 25
13 13 13 11 10 10 10 10 10 9 9 10 11 11 12 13 14 15 16 18 18 19 20 21 21 22 22 23 23 24 24 24 24 25 25 25 26 26 27 27 27 26 26 25
14 13 12 11 11 12 12 12 11 11 12 12 13 13 13 14 15 16 17 18 19 20 21 22 22 23 23 24 24 25 25 25 25 25 26 26 26 26 26 27 27 27 26 25
15 14 14 13 12 14 13 13 13 14 14 14 15 15 14 15 16 17 18 19 20 21 22 23 23 24 25 25 25 26 26 26 26 26 26 26 26 26 26 26 26 27 27 26
16 17 17 14 13 15 16 15 14 16 16 16 17 17 17 17 17 18 19 21 22 23 24 24 25 26 26 26 26 27 27 27 27 27 27 26 26 26 26 26 26 26 26 26
19 20 19 16 17 17 18 17 17 18 18 18 18 18 18 19 19 20 21 22 23 24 25 26 26 27 27 27 27 28 28 27 27 27 27 27 26 26 26 26 26 26 25 25
21 21 20 19 20 20 20 20 20 20 20 20 20 20 20 20 20 21 22 23 25 26 27 27 27 28 29 29 29 29 28 28 27 27 27 27 27 27 26 26 25 25 25 25
23 22 22 22 22 22 23 22 22 22 22 22 22 22 22 22 22 23 24 25 27 28 29 30 30 30 30 30 30 30 29 28 28 28 27 28 28 27 27 27 26 25 25 24
25 25 25 24 24 24 24 24 24 24 24 24 24 23 23 23 24 24 25 27 29 30 31 32 32 32 31 31 31 30 29 29 29 29 28 28 28 28 28 28 27 27 26 25
26 27 27 26 25 26 26 26 26 26 25 25 25 25 25 25 26 27 28 29 31 32 33 33 33 32 32 32 31 30 29 29 29 29 29 29 29 28 29 29 29 28 28 27
29 28 28 27 27 27 27 27 27 27 27 27 27 27 27 27 28 29 30 32 32 33 34 35 34 33 32 32 32 31 30 30 30 30 30 30 29 29 29 29 30 30 30 29
30 30 30 29 29 29 29 29 29 29 29 29 29 29 30 30 31 32 33 34 34 35 36 36 35 33 33 33 33 32 32 31 31 31 31 31 30 30 30 30 30 30 30 30
32 33 33 32 32 32 32 31 32 32 32 32 32 33 33 33 34 35 35 36 37 37 37 36 35 34 34 34 33 33 33 32 32 31 31 31 31 32 32 32 32 31 31 31
36 37 36 35 35 35 35 35 35 35 35 35 35 36 36 36 37 37 38 39 39 39 39 38 36 35 35 34 34 34 33 33 32 32 32 32 33 33 34 34 34 34 34 34
41 40 40 40 39 39 39 39 39 39 38 39 39 39 39 39 39 40 41 41 41 41 40 39 37 36 35 35 35 35 34 34 34 34 34 35 35 36 36 36 36 36 37 37
43 43 44 44 43 43 43 43 43 42 42 42 43 43 43 42 42 43 43 43 42 41 40 39 38 37 36 36 36 36 36 35 35 35 36 37 38 38 39 39 39 40 40 40
46 47 47 47 47 47 47 47 47 46 46 46 46 46 46 45 45 45 45 44 42 41 40 39 38 38 37 37 37 37 37 37 37 38 38 39 40 41 42 42 43 43 43 43
47 48 49 49 50 50 50 50 50 50 49 49 49 49 48 48 47 47 45 44 43 42 41 40 40 39 38 38 38 38 39 39 40 40 41 42 43 44 45 45 46 46 47 47
49 49 49 50 51 52 52 53 53 53 52 52 51 50 50 49 48 47 46 45 43 42 42 41 40 40 39 39 40 40 41 41 42 43 44 45 46 47 48 48 49 50 50 50
49 50 50 51 51 52 53 54 54 54 54 53 53 52 51 50 49 47 46 44 43 43 42 41 40 40 40 40 41 41 42 43 44 46 47 48 49 50 51 52 53 53 54 54
49 50 51 51 52 52 52 53 54 54 54 54 53 52 51 50 48 47 46 44 44 43 42 41 40 40 40 41 42 43 44 45 47 48 49 51 52 53 54 55 56 57 57 57
48 49 49 50 50 50 51 51 51 52 52 52 51 51 50 49 48 47 46 45 44 43 42 41 41 41 41 42 43 45 46 47 49 50 52 53 55 56 57 58 59 60 60 61
47 47 47 48 48 48 49 49 49 49 49 49 49 48 48 47 46 45 45 44 43 42 41 41 41 41 42 43 45 46 48 49 51 52 54 56 57 58 59 60 62 62 63 63
46 45 45 46 46 46 46 46 46 46 46 46 46 45 45 44 44 43 42 41 41 40 40 40 40 41 43 44 46 47 49 51 53 54 56 57 59 60 61 62 63 63 63 63
45 44 44 44 44 44 44 44 44 44 44 44 43 43 42 42 41 40 40 39 39 39 39 40 41 42 44 45 47 49 51 52 54 56 57 58 59 61 62 63 63 63 62 62
Wind_Direction
211 207 200 199 200 202 207 212 222 228 247 274 296 312 322 329 332 335 338 340 342 343 345 346 348 349 350 351 351 352 353 354 356 357 358 359 360 0 1 1 1 0 359 357
206 203 202 202 203 207 212 219 228 240 256 276 294 307 315 321 325 330 333 335 337 338 340 341 342 344 345 347 348 348 350 351 352 353 354 356 357 358 359 360 0 0 360 359
204 205 205 206 208 212 218 226 236 247 262 277 291 300 309 315 321 325 329 331 333 334 336 337 339 340 341 342 343 345 346 347 348 350 351 352 354 355 356 357 358 358 358 358
210 210 213 209 213 222 228 234 243 254 266 277 287 295 304 310 316 320 324 327 329 331 332 334 335 336 337 338 338 339 340 342 343 344 346 347 349 351 353 354 355 356 356 356
217 219 221 219 224 232 236 242 251 260 269 278 285 293 301 306 311 316 320 323 326 327 329 330 331 331 332 333 334 335 336 337 338 339 341 343 344 346 349 350 352 354 355 356
226 231 235 230 230 240 246 250 257 264 271 277 284 290 296 300 307 313 317 320 322 323 324 325 326 327 328 329 329 330 331 333 335 336 338 339 340 341 343 346 348 350 351 353
235 239 243 240 240 247 253 258 261 266 272 277 283 289 295 300 305 310 314 316 318 319 320 321 322 323 324 325 326 327 328 329 330 332 333 334 336 337 339 341 343 345 347 349
242 244 248 249 250 255 260 264 266 269 273 277 281 286 291 297 301 306 309 311 314 315 317 318 318 319 320 321 322 323 324 325 326 328 329 330 332 333 335 336 338 340 342 344
247 250 255 255 256 259 262 265 268 270 273 276 280 284 288 293 297 302 305 308 310 313 314 315 316 317 317 318 318 319 320 321 322 324 325 327 328 329 330 331 333 334 336 338
253 255 257 258 259 261 264 267 268 270 273 276 279 283 286 290 295 298 302 305 307 310 312 313 314 314 315 316 316 316 317 318 319 320 322 323 324 326 327 327 328 329 330 332
256 258 259 260 262 263 265 267 269 271 273 275 278 281 284 288 292 296 300 303 306 308 310 311 312 312 313 314 314 314 314 315 315 316 318 319 321 322 323 323 323 325 325 326
257 259 261 262 264 265 266 267 269 271 273 275 278 280 283 287 291 295 298 302 304 306 308 310 310 311 311 312 312 312 312 312 313 314 314 315 317 318 319 320 320 320 320 320
259 261 263 264 264 265 267 268 269 271 273 275 278 280 283 286 290 293 297 300 302 305 306 307 308 308 309 310 310 310 310 310 310 310 311 312 313 313 314 315 315 315 315 315
259 261 262 264 265 266 267 268 270 272 274 276 278 280 283 286 289 292 296 298 301 303 305 306 306 305 306 307 308 308 309 309 308 308 308 309 310 311 311 311 311 311 311 311
259 260 261 263 265 266 268 269 271 272 274 276 278 281 284 286 288 291 295 297 299 302 303 303 303 303 303 303 305 306 306 306 307 307 307 308 309 309 310 310 309 308 307 307
256 258 261 262 264 265 267 269 270 272 274 276 278 281 283 286 288 291 293 296 298 300 301 301 300 300 300 301 303 304 304 305 305 305 305 306 307 307 308 308 307 306 305 304
257 258 260 261 262 263 266 268 269 271 273 275 278 280 283 285 288 290 292 295 297 298 299 298 298 298 298 299 300 301 302 302 303 304 304 305 305 306 306 306 306 305 304 303
256 257 258 260 261 263 265 267 268 270 272 275 277 280 283 285 287 290 291 293 295 296 296 296 295 295 296 297 298 299 300 301 301 302 303 304 305 305 305 305 305 304 303 302
255 255 256 258 260 261 263 266 268 270 272 274 277 279 282 284 286 289 290 292 293 293 294 294 294 294 294 295 297 298 299 300 301 302 303 304 305 305 305 305 305 304 303 302
254 255 256 257 259 260 262 264 267 269 271 274 276 278 281 283 285 287 289 290 291 291 292 293 293 294 294 295 296 298 299 299 300 302 303 304 304 305 305 305 304 304 303 302
254 255 256 257 258 260 261 263 265 268 270 272 275 277 279 281 283 285 287 288 289 290 291 291 292 293 293 295 296 298 299 300 301 302 303 304 304 305 305 305 305 304 303 302
254 255 256 257 258 259 261 263 265 267 269 271 273 275 278 279 281 283 284 285 287 288 289 290 291 292 293 294 296 297 299 300 302 303 304 305 305 306 306 306 306 305 304 303
254 254 255 256 257 259 261 262 264 266 268 270 272 273 275 277 279 281 282 283 285 286 288 288 289 291 292 294 296 297 299 301 302 303 304 306 306 307 307 307 307 306 305 304
254 255 256 257 258 259 260 262 263 265 267 268 270 272 274 275 276 278 279 281 283 285 286 287 288 290 292 294 296 298 299 301 303 304 305 307 308 308 308 308 308 307 306 305
254 255 256 257 257 258 260 261 263 264 266 267 269 271 272 273 274 276 278 279 281 283 284 286 288 290 293 295 297 298 300 302 303 305 306 308 309 309 309 309 308 308 307 306
254 255 256 257 258 259 260 261 262 263 265 266 267 269 270 271 273 275 276 278 280 281 283 286 289 291 293 295 297 299 301 303 305 306 308 309 310 310 310 310 310 310 309 308
254 254 255 256 257 258 259 260 261 262 263 265 266 267 269 270 271 273 274 276 278 280 283 286 289 291 294 296 299 301 303 305 307 308 309 310 311 312 313 313 312 312 311 310
Height
5850 5851 5853 5855 5857 5858 5860 5861 5862 5862 5862 5862 5862 5861 5860 5858 5856 5854 5852 5849 5846 5843 5839 5836 5832 5828 5824 5820 5816 5812 5807 5803 5798 5793 5788 5783 5778 5773 5767 5761 5755 5750 5745 5740
5849 5850 5852 5854 5856 5857 5858 5859 5860 5860 5861 5860 5860 5859 5858 5856 5854 5852 5850 5847 5844 5841 5838 5834 5831 5827 5823 5819 5815 5811 5806 5802 5797 5793 5788 5783 5778 5772 5767 5761 5755 5750 5745 5739
5847 5849 5851 5853 5854 5856 5857 5857 5858 5859 5860 5858 5858 5857 5856 5854 5852 5850 5848 5845 5842 5839 5836 5832 5829 5825 5821 5817 5813 5809 5805 5800 5796 5791 5787 5782 5777 5772 5766 5761 5755 5750 5744 5739
5846 5848 5849 5853 5852 5854 5854 5855 5856 5856 5856 5856 5855 5854 5853 5851 5849 5847 5845 5842 5840 5837 5833 5830 5826 5823 5819 5815 5811 5807 5803 5799 5794 5790 5785 5781 5776 5771 5766 5760 5755 5750 5744 5739
5844 5845 5847 5849 5850 5851 5852 5853 5853 5853 5853 5853 5852 5851 5850 5848 5846 5844 5842 5839 5837 5834 5831 5827 5824 5820 5816 5813 5809 5805 5801 5796 5792 5788 5784 5779 5774 5770 5765 5760 5755 5749 5744 5738
5842 5843 5844 5847 5847 5847 5849 5850 5850 5850 5850 5849 5848 5848 5848 5845 5843 5841 5838 5836 5833 5830 5827 5824 5821 5817 5813 5810 5806 5802 5798 5794 5790 5785 5781 5777 5772 5768 5763 5759 5754 5749 5743 5738
5839 5840 5841 5843 5844 5844 5846 5847 5847 5846 5845 5845 5844 5844 5843 5840 5839 5837 5835 5832 5829 5827 5824 5820 5817 5813 5810 5806 5802 5798 5794 5790 5786 5782 5778 5774 5770 5765 5761 5757 5752 5748 5743 5738
5835 5836 5839 5839 5839 5840 5841 5841 5841 5841 5841 5840 5840 5839 5837 5836 5834 5833 5830 5828 5825 5823 5819 5816 5813 5809 5806 5802 5798 5794 5791 5787 5783 5779 5775 5771 5767 5763 5758 5754 5750 5746 5742 5737
5831 5833 5834 5834 5835 5835 5835 5836 5836 5836 5836 5835 5834 5834 5833 5831 5830 5828 5826 5823 5821 5818 5815 5811 5808 5805 5801 5797 5793 5790 5786 5782 5779 5775 5771 5767 5763 5759 5755 5751 5747 5743 5739 5735
5825 5826 5828 5828 5829 5829 5830 5830 5830 5830 5830 5829 5829 5828 5827 5826 5824 5823 5821 5818 5815 5812 5809 5806 5802 5799 5795 5791 5788 5784 5781 5777 5774 5770 5767 5763 5759 5755 5752 5748 5744 5740 5736 5733
5819 5820 5821 5822 5823 5823 5824 5824 5824 5824 5824 5823 5823 5822 5821 5820 5818 5817 5815 5812 5809 5806 5803 5800 5796 5793 5789 5785 5782 5778 5775 5772 5768 5765 5761 5758 5754 5751 5747 5743 5739 5736 5733 5729
5813 5814 5814 5816 5816 5816 5817 5817 5817 5817 5817 5816 5816 5815 5814 5813 5812 5810 5808 5806 5803 5800 5796 5793 5789 5786 5782 5778 5775 5772 5769 5765 5762 5759 5756 5752 5749 5746 5742 5738 5735 5731 5727 5724
5805 5806 5807 5808 5809 5809 5809 5810 5810 5810 5810 5809 5809 5808 5807 5806 5805 5803 5801 5798 5795 5792 5789 5785 5782 5778 5775 5772 5768 5765 5762 5759 5756 5752 5749 5746 5743 5740 5737 5734 5729 5726 5722 5719
5797 5798 5799 5800 5801 5801 5801 5802 5802 5802 5802 5802 5801 5800 5799 5798 5797 5795 5793 5790 5787 5784 5781 5777 5774 5771 5768 5764 5761 5758 5755 5752 5748 5745 5742 5739 5736 5733 5730 5727 5724 5720 5717 5713
5789 5789 5790 5791 5792 5792 5793 5793 5793 5793 5793 5793 5793 5792 5791 5790 5788 5786 5784 5781 5779 5776 5772 5769 5766 5763 5760 5756 5753 5750 5747 5744 5741 5738 5735 5732 5728 5725 5722 5719 5716 5713 5710 5706
5778 5779 5780 5782 5782 5783 5783 5784 5784 5784 5784 5784 5783 5782 5781 5780 5779 5777 5774 5772 5769 5766 5763 5760 5757 5754 5751 5748 5745 5742 5739 5736 5733 5730 5727 5724 5720 5717 5714 5711 5707 5704 5701 5698
5767 5768 5769 5770 5771 5772 5772 5773 5773 5774 5774 5774 5773 5772 5771 5770 5768 5766 5764 5761 5759 5756 5753 5750 5747 5744 5742 5739 5736 5733 5730 5727 5724 5721 5718 5715 5711 5708 5705 5701 5698 5695 5691 5688
5754 5755 5756 5758 5759 5760 5761 5761 5762 5762 5762 5762 5761 5761 5760 5759 5757 5755 5753 5750 5748 5745 5743 5740 5737 5734 5732 5729 5726 5724 5721 5718 5715 5711 5708 5705 5701 5698 5695 5691 5687 5684 5681 5677
5739 5741 5743 5744 5746 5747 5748 5748 5749 5749 5750 5750 5749 5748 5748 5746 5745 5743 5741 5739 5737 5734 5732 5729 5727 5724 5721 5719 5716 5713 5710 5707 5704 5701 5698 5694 5691 5687 5683 5679 5675 5672 5668 5664
5724 5726 5728 5730 5731 5733 5734 5735 5735 5736 5736 5736 5736 5735 5735 5734 5732 5731 5729 5727 5725 5723 5720 5718 5715 5713 5710 5708 5705 5702 5699 5696 5693 5690 5686 5683 5679 5675 5670 5666 5662 5658 5654 5650
5709 5711 5713 5715 5716 5718 5719 5720 5721 5722 5722 5722 5722 5722 5721 5720 5719 5718 5716 5715 5713 5711 5708 5706 5704 5701 5699 5696 5694 5691 5688 5685 5681 5678 5674 5670 5666 5661 5657 5652 5647 5643 5638 5633
5694 5696 5698 5700 5701 5703 5704 5705 5706 5707 5708 5708 5708 5708 5708 5707 5706 5705 5704 5703 5701 5699 5697 5695 5692 5690 5687 5685 5682 5679 5676 5672 5669 5665 5660 5656 5651 5646 5641 5636 5631 5625 5620 5615
5679 5681 5683 5685 5686 5688 5689 5690 5692 5692 5693 5693 5694 5694 5694 5693 5693 5692 5691 5690 5689 5687 5685 5683 5680 5678 5676 5673 5670 5667 5663 5659 5655 5651 5646 5641 5636 5630 5625 5619 5613 5607 5602 5596
5664 5666 5668 5670 5671 5673 5674 5676 5677 5677 5678 5679 5679 5680 5680 5680 5680 5679 5678 5677 5676 5674 5672 5670 5668 5666 5663 5661 5657 5654 5650 5646 5641 5637 5631 5626 5620 5614 5608 5601 5595 5589 5582 5576
5648 5651 5653 5655 5657 5658 5660 5661 5662 5663 5664 5665 5665 5666 5666 5666 5666 5666 5665 5664 5663 5661 5660 5658 5656 5653 5651 5648 5645 5641 5637 5632 5627 5622 5616 5610 5604 5597 5590 5583 5576 5569 5562 5555
5633 5636 5638 5640 5642 5644 5646 5647 5648 5649 5650 5651 5652 5653 5653 5653 5653 5653 5652 5651 5650 5649 5648 5646 5644 5641 5638 5635 5631 5627 5623 5618 5613 5607 5601 5594 5587 5580 5573 5565 5557 5549 5541 5533
5619 5622 5624 5626 5628 5630 5632 5633 5635 5636 5637 5638 5639 5640 5640 5640 5640 5640 5640 5639 5638 5637 5635 5634 5631 5629 5626 5622 5618 5614 5609 5603 5597 5591 5585 5578 5570 5563 5554 5546 5538 5529 5521 5512